Flag for Turkey Weather past 2 weeks in Istanbul, Turkey

Now
50 °F

Sprinkles. Broken clouds.


Feels Like: 47 °F
Forecast: 39 / 49 °F
Wind: 7 mph from Southwest

Location: Istanbul Ataturk Airport

Current Time: Mar 3, 2015 at 2:54:33 PM

Latest Report: Mar 3, 2015 at 1:50 PM


Visibility: 5 mi

Pressure: 29.98 "Hg

Humidity: 88%

Dew point: 46 °F

Location of IstanbulLocation

Historic Weather in Istanbul — Graph

°F

Istanbul temperature yesterday

Maximum temperature yesterday: 50 °F (at 11:20 AM)
Minimum temperature yesterday: 41 °F (at 2:50 AM)
Average temperature yesterday: 47 °F

Past Weeks' High & Low Weather Summary

 TemperatureHumidityPressure
High66 °F (Feb 27, 12:50 PM)100% (Feb 17, 1:50 PM)30.45 "Hg (Feb 17, 1:50 PM)
Low28 °F (Feb 18, 12:50 AM)44% (Feb 22, 12:20 PM)29.74 "Hg (Feb 24, 12:50 PM)
Average45 °F75%30.07 "Hg
* Reported Feb 16 1:02 PM — Mar 3 1:20 PM, Istanbul, Weather by CustomWeather, © 2015

Note: Actual official high and low records may vary slightly from our data, if they occured in-between our weather recording intervals... More about our weather records

Advertising

Istanbul weather history for previous 24 hours

 ConditionsComfort  
Time TempWeatherWind HumidityBarometerVisibility
1:20 PM
Tue, Mar 3
50 °FRain showers. Partly sunny.12 mph88%29.98 "Hg4 mi
12:50 PM50 °FSprinkles. Broken clouds.13 mph88%29.95 "HgN/A
12:20 PM50 °FSprinkles. Partly sunny.14 mph88%29.95 "HgN/A
11:50 AM52 °FSprinkles. Broken clouds.12 mph82%29.98 "HgN/A
11:20 AM52 °FSprinkles. Broken clouds.10 mph77%29.95 "HgN/A
10:50 AM50 °FSprinkles. Broken clouds.10 mph82%29.95 "HgN/A
10:20 AM52 °FBroken clouds.13 mph72%29.95 "HgN/A
9:50 AM52 °FBroken clouds.10 mph72%29.95 "HgN/A
9:20 AM50 °FBroken clouds.5 mph82%29.95 "HgN/A
8:50 AM50 °FBroken clouds.5 mph82%29.95 "HgN/A
8:20 AM50 °FBroken clouds.10 mph82%29.95 "HgN/A
7:50 AM50 °FBroken clouds.8 mph82%29.95 "HgN/A
7:20 AM48 °FBroken clouds.5 mph87%29.95 "HgN/A
6:50 AM48 °FScattered clouds.5 mph87%29.95 "HgN/A
6:20 AM48 °FPassing clouds.7 mph82%29.95 "HgN/A
5:50 AM48 °FPassing clouds.5 mph87%29.95 "HgN/A
5:20 AM48 °FPassing clouds.6 mph82%29.95 "HgN/A
4:50 AM48 °FPassing clouds.8 mph82%29.95 "HgN/A
4:20 AM48 °FPassing clouds.6 mph87%29.95 "HgN/A
3:50 AM48 °FPassing clouds.7 mph87%29.95 "HgN/A
3:20 AM46 °FPassing clouds.7 mph93%29.95 "Hg5 mi
2:50 AM48 °FPassing clouds.5 mph87%29.95 "Hg5 mi
2:20 AM48 °FPassing clouds.6 mph87%29.95 "HgN/A
1:50 AM48 °FPassing clouds.7 mph87%29.98 "HgN/A
1:20 AM48 °FPassing clouds.8 mph87%29.98 "HgN/A
12:50 AM48 °FPassing clouds.6 mph87%29.98 "HgN/A
12:20 AM48 °FPassing clouds.7 mph82%29.98 "HgN/A
11:50 PM
Mon, Mar 2
46 °FPassing clouds.5 mph87%29.98 "HgN/A
11:20 PM46 °FPassing clouds.3 mph87%29.98 "HgN/A
10:50 PM46 °FPassing clouds.5 mph87%30.01 "HgN/A
10:20 PM48 °FPassing clouds.6 mph82%30.01 "HgN/A
9:50 PM48 °FPassing clouds.3 mph82%30.01 "HgN/A
9:20 PM48 °FPassing clouds.5 mph82%30.01 "HgN/A
8:50 PM48 °FPassing clouds.3 mph82%30.01 "HgN/A
8:20 PM48 °FPassing clouds.5 mph82%30.01 "HgN/A
7:50 PM46 °FPassing clouds.5 mph87%30.01 "HgN/A
7:20 PM46 °FPassing clouds.5 mph87%30.01 "HgN/A
6:50 PM48 °FPassing clouds.7 mph87%30.01 "HgN/A
6:20 PM48 °FClear.6 mph82%30.01 "Hg10 mi
5:50 PM48 °FSunny.5 mph82%30.01 "Hg10 mi
5:20 PM50 °FSunny.6 mph76%30.01 "Hg10 mi
4:50 PM50 °FSunny.7 mph71%30.01 "Hg10 mi
4:20 PM50 °FSunny.7 mph71%30.01 "Hg10 mi
3:50 PM50 °FPassing clouds.6 mph76%30.01 "HgN/A
3:20 PM50 °FPassing clouds.6 mph71%30.01 "HgN/A
2:50 PM50 °FSunny.6 mph71%30.04 "Hg10 mi
2:20 PM50 °FPassing clouds.6 mph71%30.04 "HgN/A
Weather by CustomWeather, © 2015

See weather overviewHow to use our weather pages